Wind_Speed
4 6 6 2 2 5 3 3 2 5 5 5 4 2 3 6 6 6 8 7 5 5 2 5 5 6 6 5 6 5 6 6 6 5 5 5 4 4 1 3 4 4 6 12 19 17 14 17 20 16 16 19 17 17 19 20 22 22 23 26 26 27 29 29 30 30 28 26 26 28 28 28 28 27 27 28 28 26 22 17 13 11 12 17 22 23
5 7 4 3 5 6 2 3 5 5 3 2 2 1 4 4 8 9 7 7 6 4 2 5 6 5 6 5 5 5 6 5 6 6 5 5 5 3 1 4 5 4 7 12 16 16 14 16 17 16 18 19 18 19 21 23 23 21 22 24 24 26 26 26 25 23 23 23 24 26 26 28 28 25 25 24 24 25 24 19 15 16 19 24 26 24
7 5 4 6 4 1 2 6 8 6 4 2 2 3 3 3 6 8 6 6 6 3 3 5 6 5 6 4 4 4 5 4 5 6 5 6 5 1 1 3 5 5 7 8 12 15 13 15 16 15 17 17 18 20 22 24 24 22 22 23 24 25 25 25 22 20 24 25 24 26 26 27 26 23 21 19 19 20 22 21 17 17 20 21 23 22
4 2 6 5 5 4 3 5 8 6 5 3 2 2 3 3 2 4 5 7 7 4 3 5 4 3 4 3 4 4 3 2 4 5 5 5 4 3 1 2 4 6 7 6 9 11 11 14 14 14 16 16 18 19 20 23 22 20 22 23 24 24 25 26 22 21 26 25 24 26 27 27 24 21 19 18 20 21 21 22 21 20 21 18 16 15
2 5 4 5 6 5 3 4 6 6 5 4 2 2 3 5 2 5 5 7 8 5 1 4 0 3 4 5 6 4 3 3 3 5 5 4 3 2 0 3 4 6 6 6 7 7 10 12 11 13 16 17 17 17 19 20 19 20 22 23 24 24 24 23 21 22 25 24 24 25 26 26 23 21 20 20 22 24 23 23 24 23 21 19 17 14
1 5 2 5 6 6 4 2 3 3 4 6 3 4 4 7 6 7 6 6 5 4 2 3 3 5 4 8 8 4 3 5 4 5 6 3 1 2 3 3 5 5 5 6 5 6 10 10 9 13 15 15 16 16 17 18 19 22 23 23 23 23 22 20 20 22 22 22 23 24 23 22 19 18 18 19 21 23 22 22 23 25 24 23 22 19
0 3 4 4 3 6 5 2 1 3 5 5 4 5 6 6 7 8 7 4 2 3 3 3 1 4 2 6 8 5 5 7 5 6 6 4 1 1 1 4 5 5 5 5 4 6 9 9 9 11 13 13 14 15 17 19 22 23 21 21 21 21 20 20 21 21 21 21 22 22 22 19 16 16 17 18 19 20 20 21 22 24 25 25 25 25
0 4 6 5 4 5 5 3 3 3 4 4 7 7 8 8 10 9 6 3 2 3 4 3 2 3 4 4 4 6 6 7 6 7 6 4 2 2 2 4 4 5 6 3 3 6 7 7 7 9 10 11 13 15 18 21 23 20 18 19 20 19 20 20 20 19 20 20 20 21 21 19 18 18 19 19 20 20 20 22 23 23 24 24 25 25
1 2 1 2 5 4 2 3 5 2 2 6 9 10 9 8 10 8 4 4 2 1 4 4 1 2 5 3 2 4 5 7 8 8 6 5 4 3 4 5 5 6 5 1 3 6 5 6 6 8 10 10 12 16 18 21 21 17 18 20 20 20 20 18 17 18 19 19 19 20 20 20 20 19 20 21 21 21 23 25 25 24 24 24 24 24
1 2 4 3 4 2 4 6 5 4 2 7 9 11 9 6 6 4 3 2 2 2 4 3 3 2 5 3 2 2 4 7 8 7 5 5 4 4 5 5 5 6 4 2 4 7 7 6 4 8 10 9 11 14 18 20 17 15 18 20 20 21 19 16 16 17 18 18 18 19 19 20 21 21 21 22 22 23 24 24 24 23 23 23 23 23
1 1 1 3 2 2 5 6 4 6 4 5 7 9 8 5 2 1 1 2 3 2 5 4 3 2 3 4 3 4 5 6 5 4 4 5 5 5 5 5 5 5 3 4 5 8 10 5 4 10 9 7 10 14 18 17 13 14 18 20 20 21 18 16 17 17 16 17 18 18 18 19 20 21 21 21 22 22 21 21 21 22 22 23 23 24
4 3 1 1 1 1 2 4 3 1 2 6 5 4 4 5 4 3 4 4 3 4 5 5 1 3 2 6 4 5 5 5 6 5 6 7 7 6 5 5 5 5 4 4 4 8 10 4 5 10 7 6 10 14 15 11 9 14 18 20 20 19 17 17 18 16 15 16 17 17 18 19 19 19 19 20 21 20 20 20 21 23 24 24 24 24
3 2 2 3 3 3 3 3 5 5 6 6 4 4 5 4 4 4 4 2 1 5 5 1 5 2 5 7 5 6 6 6 7 7 7 8 7 6 6 6 5 4 4 4 3 6 7 3 6 9 5 6 10 11 10 7 8 14 19 21 19 17 17 17 17 15 14 16 17 17 18 18 18 19 19 19 19 19 20 21 22 23 23 24 25 25
4 3 3 3 3 2 4 3 2 3 4 5 4 4 3 3 5 5 4 3 3 5 5 3 5 1 6 5 6 8 8 8 7 7 8 7 7 6 6 6 4 4 5 3 3 4 5 4 9 9 5 8 10 10 9 8 11 16 19 20 18 18 18 17 17 17 16 16 16 17 17 18 18 18 17 17 18 19 20 20 21 22 23 24 25 25
3 4 2 1 1 1 3 3 4 2 2 3 0 4 3 2 2 1 2 3 5 7 7 5 1 3 4 4 5 7 6 6 7 7 7 6 6 6 5 4 4 5 4 3 3 3 5 8 9 7 7 11 12 10 9 10 13 17 19 18 16 17 18 18 17 17 17 17 17 17 17 18 18 17 16 17 18 19 20 21 22 23 23 24 24 24
1 4 4 1 1 2 1 2 3 4 1 3 1 4 1 2 4 2 4 5 4 6 6 2 2 5 3 3 2 3 4 5 7 7 6 6 6 5 3 4 4 4 4 4 3 3 7 9 6 5 9 11 10 8 8 10 15 19 18 15 13 16 18 18 17 18 18 18 17 17 18 17 17 16 17 18 18 19 20 22 22 23 23 23 24 24
1 4 4 1 3 2 2 2 1 2 1 1 2 1 2 3 5 2 4 4 1 2 5 2 4 5 2 3 1 1 4 6 7 7 6 7 6 4 4 5 5 5 5 4 3 3 6 7 2 4 9 8 7 7 9 13 16 17 15 14 15 17 18 18 18 18 18 18 18 18 18 17 17 17 18 19 19 20 21 21 21 22 22 23 24 24
1 4 5 3 0 2 2 2 3 1 1 3 1 2 2 2 3 3 2 4 3 2 5 3 5 6 4 4 2 2 7 9 9 8 6 6 5 4 5 5 5 5 5 4 4 4 6 4 2 5 8 6 7 9 11 14 16 16 14 15 15 15 16 18 18 17 17 18 19 19 18 18 18 19 19 19 20 21 21 21 21 21 22 23 24 24
2 2 6 1 2 2 1 5 3 3 1 3 2 2 3 2 1 1 1 2 2 4 5 4 5 5 3 4 3 4 8 9 10 8 6 6 6 5 6 6 6 5 4 4 3 4 5 4 4 6 7 7 8 11 12 14 16 17 16 14 14 15 17 18 17 17 17 18 19 19 19 19 19 20 20 20 20 21 21 21 22 22 22 23 23 23
2 1 4 3 1 1 1 2 1 3 3 3 3 2 2 2 3 1 1 2 1 2 4 4 6 4 5 5 5 7 9 8 8 7 6 8 7 6 6 5 5 5 4 4 4 4 5 4 5 8 7 8 9 12 14 15 17 17 15 13 14 16 17 17 16 17 17 17 19 19 20 20 20 20 21 21 21 21 22 22 22 22 22 22 23 24
2 2 3 5 3 1 1 1 4 4 1 1 1 1 1 1 1 1 1 2 3 2 1 4 7 8 5 4 6 9 9 7 7 7 7 7 6 6 6 5 5 5 5 4 4 4 5 6 8 8 7 9 11 13 14 16 17 17 14 14 16 17 18 17 17 17 16 17 18 19 19 20 21 21 21 21 21 22 23 23 22 21 22 23 23 24
1 1 2 4 4 3 3 3 4 5 5 4 3 3 3 2 3 1 4 2 2 3 4 1 7 11 6 4 6 8 6 6 7 7 7 7 7 7 6 6 5 5 5 5 5 6 6 8 8 6 7 11 14 14 14 15 16 15 14 14 15 17 17 17 17 17 16 16 17 18 19 20 21 22 22 23 23 23 23 22 21 22 23 23 23 23
2 2 1 4 5 4 4 2 0 1 2 3 2 2 3 4 5 3 3 3 1 1 2 3 3 9 5 4 6 6 6 6 6 8 7 6 6 6 5 6 5 5 5 5 6 8 8 8 7 6 9 13 14 12 12 15 16 14 13 14 15 17 16 15 16 16 17 17 18 18 19 20 21 22 24 24 24 23 22 22 23 23 23 24 24 23
1 2 0 5 6 3 2 2 3 3 4 1 1 2 4 3 4 5 4 2 1 3 2 3 4 9 4 4 5 5 5 5 5 7 7 5 5 5 5 5 5 5 5 5 6 8 7 6 5 6 9 12 13 12 14 17 15 12 12 14 16 16 15 14 16 17 18 18 18 19 19 20 21 23 24 24 23 23 23 23 24 23 23 24 24 23
1 1 0 4 6 5 3 4 4 3 1 2 2 2 3 5 6 4 2 3 1 5 6 4 6 10 4 3 4 4 5 6 6 6 6 5 5 4 5 5 5 5 5 5 6 6 6 6 5 5 8 11 12 14 15 14 11 10 12 14 15 16 15 16 17 18 18 18 19 20 20 20 21 22 23 23 23 24 24 24 24 24 24 24 24 24
1 2 2 2 2 4 4 5 5 4 2 2 1 3 3 6 8 4 2 2 2 5 6 5 8 13 7 2 4 6 7 9 9 6 5 5 5 5 5 4 4 5 5 6 6 6 6 6 6 6 8 11 13 14 13 11 10 11 12 13 14 15 15 17 17 18 19 19 20 20 21 21 21 21 22 23 24 25 25 25 25 25 25 24 24 23
2 1 3 5 5 5 7 8 6 4 5 7 5 4 5 6 8 6 4 3 5 3 4 9 12 17 19 13 9 10 8 9 10 8 6 6 5 5 5 5 5 5 5 6 6 5 6 6 7 8 9 11 13 15 14 13 12 11 12 14 15 15 16 17 17 18 19 19 20 20 21 21 21 20 21 23 24 25 25 26 26 26 26 26 24 23
3 2 5 6 9 10 10 11 9 6 8 12 10 7 6 7 8 8 7 9 4 2 8 12 9 11 20 20 17 16 12 10 11 10 8 7 6 6 5 5 6 5 5 6 6 6 6 5 7 8 9 10 13 14 14 13 12 12 14 16 15 15 16 16 17 18 19 19 20 20 21 20 20 20 22 23 24 25 26 27 28 28 28 27 25 24
4 3 5 4 8 11 10 12 12 8 9 11 11 10 8 9 12 13 16 14 6 4 15 15 9 12 20 22 21 18 14 12 13 10 7 6 5 5 5 6 6 6 6 7 7 7 6 5 7 8 9 10 12 13 13 11 12 14 16 16 15 15 16 16 17 19 19 19 19 19 20 20 20 22 23 23 23 24 26 28 29 28 28 27 27 26
3 3 4 2 7 11 10 12 13 8 7 9 12 13 10 11 15 17 18 15 10 13 20 20 20 21 21 22 22 18 13 11 10 7 5 6 6 6 7 7 7 7 7 7 7 7 6 6 8 9 10 11 12 13 13 13 14 15 16 16 16 16 16 17 17 17 17 18 18 19 20 21 21 22 22 23 23 25 26 28 28 29 28 28 29 28
1 2 2 1 5 10 7 7 8 7 7 11 15 13 10 10 12 13 14 11 8 14 19 18 17 19 18 17 16 13 10 8 6 6 7 8 7 7 7 8 8 8 8 8 7 7 6 7 9 10 11 11 13 13 13 14 15 15 16 16 16 17 17 17 17 16 17 18 19 20 21 21 21 22 22 23 24 25 26 27 28 29 29 29 29 29
2 2 3 5 4 7 3 4 9 9 7 10 15 15 10 8 8 8 9 8 9 12 14 10 9 14 13 8 7 9 8 7 8 9 8 8 7 7 8 9 9 9 8 8 7 7 6 6 8 10 12 12 13 13 13 15 15 15 16 16 17 18 17 17 16 16 18 19 19 20 20 21 21 22 23 24 24 25 26 27 28 28 29 29 30 30
3 1 2 3 2 6 4 8 12 10 5 6 9 9 8 7 7 7 7 9 12 10 7 7 10 14 12 7 9 12 11 10 11 9 8 8 7 8 9 10 9 9 9 8 8 7 7 8 11 13 13 13 13 13 14 15 15 16 16 16 17 18 18 17 17 18 19 19 19 20 20 21 22 23 24 24 25 25 26 26 27 27 28 29 30 29
3 4 1 1 1 6 7 10 10 6 4 5 4 7 7 6 8 10 10 11 11 9 8 10 13 15 15 13 14 16 15 13 10 7 7 7 6 7 9 10 9 9 8 8 7 7 8 11 13 13 14 13 13 14 14 14 15 16 16 17 18 18 18 18 19 19 20 20 19 20 20 21 21 22 24 24 25 26 26 26 26 27 27 28 29 29
4 4 1 1 2 4 6 8 7 4 4 7 2 4 5 4 6 9 13 14 12 12 14 16 17 18 18 16 14 14 14 11 7 7 8 6 7 8 9 10 10 9 8 8 7 7 10 14 14 13 14 14 13 13 14 15 15 15 16 17 18 18 18 19 20 20 20 20 20 20 20 20 21 22 24 25 25 26 25 25 25 26 26 27 27 27
6 4 1 1 2 3 4 4 2 7 11 10 4 2 3 2 1 4 11 13 12 12 13 14 17 18 16 15 14 11 8 6 5 8 9 9 9 10 10 11 10 8 9 10 10 11 13 15 15 15 15 14 13 14 15 16 14 14 16 16 16 18 19 19 20 20 20 20 20 20 20 20 21 23 24 24 25 25 25 25 25 25 26 26 26 26
6 4 1 1 2 2 1 2 4 7 12 10 3 2 2 2 3 2 6 12 9 9 11 12 15 16 14 14 14 7 4 5 8 9 9 11 13 12 11 11 10 10 11 13 14 15 16 16 16 16 15 14 14 15 14 14 13 14 16 16 16 18 19 19 20 19 19 20 20 20 21 21 22 24 24 23 23 24 25 24 24 25 24 24 24 24
4 3 3 2 1 2 1 4 4 5 7 6 5 3 2 3 5 7 0 10 10 8 11 11 13 14 13 13 10 4 4 5 10 11 7 10 11 10 9 10 11 13 14 15 15 15 16 17 16 16 15 14 15 16 15 15 15 15 16 16 16 17 18 18 19 19 19 20 21 20 21 22 23 23 23 23 23 24 25 25 24 24 22 21 21 23
4 2 4 3 2 1 3 2 3 3 7 7 5 4 3 4 5 6 2 8 8 8 9 10 12 13 12 11 7 0 3 6 12 11 4 8 9 8 8 8 11 14 16 17 18 18 18 18 17 15 15 16 17 17 16 16 15 15 16 17 16 17 18 19 19 20 20 20 20 21 22 22 22 22 23 24 24 24 24 24 24 23 20 19 20 23
4 2 2 2 3 2 3 3 3 5 9 8 4 5 4 3 6 5 8 10 6 7 8 9 11 12 11 9 5 3 4 8 12 9 3 8 8 9 11 11 11 14 17 18 20 20 19 18 17 16 18 19 19 17 16 16 15 15 16 17 16 17 19 19 19 20 20 21 21 22 22 21 21 22 23 25 25 24 23 23 22 21 20 20 21 23
0 1 2 3 4 4 5 4 4 5 9 6 3 7 5 2 4 4 9 9 4 6 7 8 10 12 10 7 5 6 9 13 13 8 3 8 7 8 12 16 17 19 20 21 21 21 20 20 19 19 20 20 19 18 17 15 15 15 16 16 17 19 19 19 19 19 20 21 21 21 21 21 21 23 24 24 23 23 22 22 21 21 20 21 23 23
2 2 2 3 3 3 4 3 3 6 6 2 6 4 3 1 3 6 7 5 5 7 7 8 11 11 10 9 9 11 13 14 13 10 5 8 9 8 11 15 16 16 19 21 21 21 21 21 20 20 20 19 18 18 17 15 15 16 16 16 19 20 19 17 17 18 19 21 21 20 21 22 22 23 23 23 22 21 21 21 20 20 20 20 21 22
4 3 2 3 4 3 2 2 2 6 5 7 9 2 1 4 6 10 8 7 8 10 9 8 10 10 10 11 12 14 16 15 13 12 10 10 10 9 10 14 16 17 20 21 22 23 24 23 22 23 22 20 18 18 17 16 16 16 17 19 20 19 17 17 17 17 18 20 21 22 22 22 22 22 21 21 20 20 20 20 19 19 19 18 19 20
4 4 3 3 3 3 3 4 4 3 4 9 6 3 6 9 10 11 11 12 13 12 10 9 11 11 11 12 14 14 14 15 15 13 12 11 11 10 11 14 18 22 23 23 24 25 25 25 24 24 23 21 20 19 19 18 17 17 19 20 19 16 16 17 16 16 18 19 21 22 22 21 21 20 19 18 18 18 19 19 18 18 17 17 17 17
5 6 4 3 4 4 5 8 8 4 2 7 8 9 12 14 13 11 11 13 13 13 11 10 13 15 11 11 14 13 13 15 16 13 12 12 11 11 12 13 19 24 25 24 25 26 26 26 26 23 22 22 21 21 21 20 19 20 21 19 16 15 16 16 15 16 18 20 21 21 21 21 20 18 17 16 17 17 18 18 18 18 17 17 17 17
4 1 1 2 4 5 6 8 10 10 8 7 9 11 13 15 15 14 13 13 13 14 13 11 14 17 13 9 10 12 14 16 15 13 12 12 10 11 12 13 18 24 24 23 25 27 26 26 25 24 23 23 22 23 23 21 21 22 21 17 15 15 15 14 15 16 18 19 20 20 20 20 19 17 16 16 16 16 16 16 16 17 17 17 17 18
3 3 1 3 3 5 6 8 9 12 14 13 12 12 12 13 13 12 12 13 15 15 15 14 15 17 13 10 11 15 17 16 14 14 12 10 10 11 11 11 15 21 23 24 26 27 26 26 26 25 25 25 25 24 23 23 23 23 20 17 16 15 14 14 15 16 17 17 18 18 18 18 18 16 16 16 16 16 16 15 15 16 16 17 18 18
2 2 2 4 3 4 8 13 14 15 16 15 12 11 11 12 13 13 12 13 15 15 16 16 15 13 13 12 13 16 18 17 15 15 13 9 10 11 10 11 15 20 23 25 26 26 27 29 29 28 28 27 26 25 24 24 24 22 20 18 16 14 14 15 15 16 16 16 16 17 16 16 16 15 16 16 17 17 16 15 14 15 16 17 17 18
1 1 3 3 4 5 9 12 14 14 14 13 12 11 12 13 15 16 16 16 16 16 17 17 15 13 13 15 15 15 17 17 16 15 13 11 10 10 11 13 17 20 22 25 27 29 30 31 31 30 30 30 27 25 24 24 23 22 20 18 16 15 15 15 15 14 15 15 15 15 15 15 15 14 15 16 17 17 15 14 14 15 16 15 15 15
1 3 3 3 5 7 9 12 13 12 12 14 15 16 17 17 18 19 19 19 19 18 18 19 19 17 15 15 15 14 16 18 17 14 13 12 11 12 13 15 18 20 22 25 28 30 31 32 32 31 30 30 27 25 25 25 24 22 20 18 16 16 16 15 14 14 14 13 13 13 14 14 13 13 14 16 17 17 16 13 12 12 12 13 12 12
3 4 2 4 7 10 13 15 13 10 11 16 18 20 19 18 17 18 19 20 20 20 18 18 20 20 18 18 16 14 15 18 18 15 13 13 14 15 17 18 19 20 23 25 28 30 31 32 31 30 31 30 27 26 26 26 24 23 20 18 17 17 16 14 14 14 14 12 12 13 13 13 13 13 13 14 16 17 17 16 15 13 11 10 11 11
Wind_Direction
38 64 46 25 300 301 309 52 353 278 239 233 250 254 298 320 303 285 295 301 353 6 261 163 155 174 185 196 179 162 147 147 159 165 185 207 231 249 272 343 343 340 333 345 349 343 345 357 353 353 10 13 16 17 9 8 7 2 357 356 355 352 348 346 344 345 346 346 346 345 342 339 334 330 327 328 330 329 320 306 291 276 285 308 308 306
45 67 28 295 258 257 273 25 7 346 325 251 192 62 354 324 297 295 292 302 355 11 273 148 141 189 199 204 195 169 161 173 176 175 198 226 241 245 49 345 332 334 334 341 345 342 345 357 3 12 18 17 16 12 9 7 4 359 357 357 355 351 349 348 348 347 345 344 343 341 339 338 335 330 325 325 329 334 339 332 311 299 298 299 297 299
41 49 297 294 316 327 80 31 22 16 14 24 111 85 360 305 294 305 301 312 346 360 247 168 156 211 218 214 212 183 174 197 197 183 198 227 236 232 24 336 342 341 325 328 341 343 350 4 14 19 18 18 13 8 5 2 0 358 358 358 355 352 350 348 347 344 338 337 336 336 337 337 339 337 329 330 334 333 344 353 347 340 330 314 302 297
61 308 280 307 356 43 55 24 27 19 16 17 35 67 303 293 342 312 305 321 317 294 206 166 166 234 237 255 262 234 211 216 222 213 220 227 207 180 202 3 11 337 319 324 338 343 357 9 19 26 20 11 5 4 3 2 3 2 359 357 353 351 348 346 345 339 333 332 332 334 335 334 338 342 339 342 345 341 345 351 352 356 358 352 342 325
140 248 292 8 16 43 56 18 36 34 359 321 257 170 291 306 296 252 275 319 315 305 118 126 269 273 215 222 244 247 251 254 246 242 252 256 203 173 59 21 357 323 320 327 330 346 0 6 24 27 13 6 7 9 8 7 6 360 354 351 349 348 346 345 343 338 335 334 334 336 336 336 337 339 342 346 346 346 347 346 343 341 343 345 350 348
178 258 355 38 15 37 70 22 29 68 1 321 245 210 285 305 289 275 298 337 348 329 348 82 324 290 200 209 230 227 235 243 241 239 247 254 246 29 15 346 323 318 321 322 328 352 356 4 24 18 10 14 17 13 7 3 357 351 347 345 346 346 345 345 342 339 337 336 337 339 335 333 334 333 335 340 341 341 341 340 336 333 331 331 331 329
323 334 26 58 34 38 57 13 308 95 33 329 269 269 298 311 299 297 313 338 14 282 282 86 81 280 254 223 225 200 214 241 239 231 233 222 229 5 334 308 316 321 318 319 337 348 354 12 18 10 13 21 19 8 360 354 349 346 344 344 346 344 341 340 339 338 338 337 336 337 333 327 327 328 327 330 334 335 335 334 332 330 327 326 325 323
56 22 20 25 39 49 40 345 278 101 67 287 280 301 307 309 300 296 302 275 228 264 304 41 123 260 287 259 210 175 205 250 244 228 230 222 238 261 270 295 303 302 304 311 336 337 354 12 4 8 16 15 10 2 354 351 348 344 341 340 339 337 333 333 336 335 335 335 334 333 333 330 329 328 327 328 330 330 330 330 329 329 326 323 322 322
129 85 26 15 31 36 15 288 256 127 96 267 281 299 296 288 281 279 269 245 241 7 311 322 18 273 277 292 84 147 206 253 242 225 230 238 252 258 267 285 287 289 289 282 331 324 331 342 348 9 10 2 360 355 351 350 343 334 334 335 333 329 325 329 334 333 332 331 329 329 329 328 328 326 324 325 325 325 327 325 323 322 321 320 319 318
152 169 181 118 61 352 294 272 242 165 204 273 292 303 298 281 260 248 218 216 39 28 258 283 23 337 282 278 99 158 230 244 235 225 227 240 250 251 260 274 278 282 274 259 313 313 307 311 349 8 358 349 349 347 347 344 334 327 334 337 335 326 318 324 331 329 330 329 327 327 326 326 326 325 324 324 323 324 324 323 321 320 320 319 319 318
298 317 144 107 126 243 282 288 242 184 210 314 327 313 310 323 352 73 147 98 69 302 248 195 137 88 307 277 198 195 224 208 201 221 242 253 254 251 258 262 265 268 250 247 283 311 310 303 3 357 343 336 340 342 344 338 329 334 340 341 339 328 314 316 327 327 327 329 327 325 325 324 324 324 324 323 322 322 323 322 322 321 320 320 319 318
339 1 352 264 241 293 346 326 312 199 40 10 341 318 337 347 14 25 2 47 81 279 242 190 125 95 221 264 232 212 222 184 174 201 227 244 247 249 252 246 253 251 232 241 271 317 318 306 348 339 326 325 334 340 343 336 329 337 338 336 333 329 322 320 328 332 328 326 325 323 322 321 320 320 320 318 317 320 323 322 321 320 319 318 317 316
323 294 288 308 318 18 37 359 343 356 22 12 337 356 16 358 11 7 342 12 218 244 217 183 17 31 226 253 235 214 214 195 191 199 208 224 232 242 246 240 249 232 222 246 281 324 326 307 319 319 307 321 332 339 341 324 316 327 332 332 325 320 323 325 329 333 327 321 320 319 319 318 317 315 313 313 313 316 319 317 316 316 316 315 314 313
329 308 345 3 328 20 72 79 355 335 346 348 346 33 49 31 11 344 318 324 290 258 253 327 17 281 265 271 220 209 206 196 199 207 209 211 217 231 233 230 240 226 218 243 285 323 326 297 304 309 307 326 332 334 329 314 316 326 331 330 318 310 317 320 321 323 318 317 317 314 312 314 315 311 309 310 309 312 313 311 311 311 310 309 308 308
360 317 306 85 287 24 81 151 167 180 279 295 328 95 97 112 81 300 276 294 296 290 294 321 32 216 267 281 217 203 197 195 207 218 212 208 215 223 228 230 240 235 222 233 274 311 318 306 309 319 329 333 330 325 324 327 334 335 331 326 313 310 319 321 318 317 314 315 316 312 309 311 312 307 305 307 306 307 308 308 307 306 306 305 304 304
14 280 239 191 35 92 104 241 155 130 237 266 114 87 79 186 148 169 233 232 267 303 296 282 213 217 226 274 250 184 199 216 229 232 214 224 234 219 232 249 240 236 224 226 249 287 318 320 323 343 343 336 327 320 325 334 341 337 329 322 313 310 316 319 317 315 314 314 313 310 309 308 307 304 304 304 304 305 306 306 304 303 304 303 303 304
355 282 236 160 25 82 180 255 77 103 233 338 41 79 219 180 135 130 278 280 31 311 282 271 280 288 314 305 280 196 247 243 242 245 226 231 243 232 248 250 235 235 226 224 224 248 316 329 330 349 345 335 321 320 325 331 338 337 325 318 317 314 315 316 315 313 312 312 309 307 307 306 304 304 304 304 304 306 306 304 302 303 303 303 303 303
115 294 258 187 183 264 198 90 50 36 130 96 103 210 163 92 92 109 306 333 34 270 271 270 276 296 327 308 292 257 259 249 246 253 247 246 252 251 256 246 238 236 219 223 223 244 307 317 263 329 336 319 311 318 323 328 332 334 325 316 316 316 315 316 314 312 311 309 307 306 305 304 303 304 303 302 303 304 304 302 302 303 303 303 303 302
117 312 291 222 146 248 19 57 13 320 41 106 161 169 102 80 338 37 353 331 351 300 291 277 273 277 239 240 254 234 238 243 248 251 251 257 254 251 256 245 243 239 220 226 217 243 289 276 246 301 310 296 307 316 319 322 325 328 325 316 312 312 313 312 311 310 309 307 306 305 304 303 303 303 302 302 303 303 302 301 302 303 302 303 303 302
97 109 286 326 78 215 19 66 242 291 347 26 37 21 50 135 170 178 169 176 198 287 297 305 310 288 226 210 209 226 233 235 243 247 245 248 244 242 247 239 236 230 223 223 206 231 260 249 265 291 291 291 308 313 314 315 318 322 319 310 309 310 311 309 307 307 306 305 306 304 303 303 303 303 302 302 303 302 301 302 302 302 302 303 303 303
46 126 250 306 331 292 291 216 189 189 189 45 47 314 302 28 105 193 213 165 145 167 236 305 307 286 249 196 199 233 243 226 222 232 235 237 235 237 236 227 228 224 220 216 206 220 237 254 279 291 286 297 306 305 306 310 312 313 307 302 308 311 311 309 308 306 302 303 305 303 302 303 303 303 303 302 302 301 301 302 302 302 303 304 303 303
59 162 230 296 309 281 246 219 199 194 178 163 173 192 182 125 93 22 305 289 113 153 177 192 295 282 264 189 204 230 230 213 213 221 231 233 229 233 230 219 222 222 217 213 205 212 234 261 280 288 292 305 308 302 301 307 306 301 296 298 306 309 308 307 307 305 303 304 304 302 302 302 303 303 303 303 302 301 302 302 302 304 305 304 303 303
142 115 197 264 271 264 240 213 203 245 154 140 155 159 139 127 122 134 263 263 161 227 187 118 273 274 255 181 205 217 206 209 208 210 224 234 227 229 230 224 223 221 219 211 202 214 238 258 268 285 305 315 314 303 302 307 300 288 287 295 304 306 302 302 305 305 305 305 304 303 304 303 303 304 304 303 302 301 302 303 304 305 305 304 304 303
94 90 258 268 278 284 278 304 342 25 56 68 249 159 147 148 139 152 179 177 185 241 207 115 252 269 270 196 208 207 196 209 212 211 223 237 234 232 233 232 228 224 223 210 204 219 238 247 260 291 311 319 315 302 303 305 294 282 289 300 305 304 299 300 305 305 305 304 304 304 303 303 304 304 304 303 302 303 304 305 306 306 305 304 304 302
250 171 29 329 326 333 340 327 324 360 84 225 239 178 153 114 101 114 124 82 335 230 185 156 249 267 270 163 208 237 227 238 240 221 220 236 244 243 240 237 227 222 224 216 216 228 230 230 252 285 301 309 305 299 305 305 291 289 301 304 304 303 301 304 306 305 304 304 305 305 303 303 304 304 303 303 304 305 305 306 306 306 306 305 304 301
175 197 129 74 351 318 311 305 311 318 260 230 158 160 167 130 131 151 118 89 257 228 169 170 249 277 287 198 221 251 251 268 275 251 232 243 245 243 243 240 228 221 224 224 224 226 219 221 242 271 295 303 295 291 296 296 290 297 302 303 304 303 302 306 306 304 304 304 305 304 304 304 304 304 304 304 306 307 306 307 307 306 306 305 304 301
92 252 211 185 200 231 250 257 282 330 302 285 278 215 192 169 161 144 114 179 207 192 211 225 241 275 289 285 278 277 269 279 290 284 266 257 250 250 248 238 229 223 224 225 222 218 216 224 244 267 292 302 294 287 284 285 288 294 301 307 308 304 303 304 304 304 304 303 303 303 303 304 303 303 305 306 307 308 307 307 307 307 307 305 303 299
90 288 244 212 225 238 253 266 282 310 288 280 281 252 201 178 166 163 198 218 173 82 272 252 223 257 281 288 292 293 293 294 294 288 271 254 249 250 245 236 235 234 230 225 220 218 220 229 244 262 282 298 300 294 286 286 289 295 305 309 307 304 303 303 304 305 305 303 302 303 304 304 304 304 306 307 308 308 308 308 308 308 307 306 303 299
116 260 246 211 249 256 260 271 276 276 268 267 268 257 227 190 179 195 222 226 187 217 260 267 268 270 279 286 289 291 296 294 289 282 263 246 243 237 236 242 246 246 242 236 230 225 223 230 239 253 271 287 299 299 293 292 295 301 307 306 303 300 300 302 303 304 302 301 300 302 303 304 304 305 307 308 308 308 309 309 309 309 308 306 304 301
126 247 250 225 280 278 264 263 267 265 267 268 262 252 232 207 198 208 229 232 216 235 254 268 279 279 275 278 282 286 288 283 279 273 252 243 238 231 236 248 253 251 244 237 232 225 219 225 234 248 264 275 287 292 290 293 299 304 305 302 299 298 298 302 303 300 299 298 299 302 303 304 305 306 307 308 308 309 310 310 311 310 308 307 305 304
151 264 284 72 316 296 272 261 268 256 251 268 273 265 241 225 218 221 236 239 230 247 257 267 278 278 272 269 273 278 279 278 272 258 249 247 238 231 238 247 252 256 249 239 231 221 217 223 232 243 254 266 281 286 286 293 302 302 300 297 296 297 300 302 300 297 298 298 299 302 304 304 306 307 307 307 309 310 311 311 311 310 309 308 307 307
178 270 348 48 350 294 283 331 310 287 261 265 276 273 251 227 220 220 225 214 206 236 261 276 276 272 272 266 263 270 271 269 265 257 254 253 236 228 243 250 251 253 251 242 229 218 218 221 226 238 248 261 277 283 287 296 301 298 294 293 294 298 301 300 297 297 298 299 300 302 303 305 306 306 307 308 309 310 311 311 311 310 310 309 309 309
148 133 15 44 328 275 304 332 313 311 328 297 267 245 222 215 228 240 239 219 206 217 253 265 255 266 283 298 289 286 284 275 269 261 256 256 241 229 241 248 248 248 247 241 229 219 220 224 228 236 244 254 270 280 286 291 294 292 290 291 295 298 298 296 296 297 298 299 300 301 302 304 305 306 308 309 310 310 311 311 310 310 310 310 310 310
120 109 136 120 257 274 307 324 321 349 2 297 233 171 181 209 224 238 251 240 218 204 223 248 262 275 285 287 283 283 282 280 277 262 245 243 239 238 243 245 245 244 239 232 223 215 217 225 231 235 239 251 268 276 279 282 284 284 285 290 296 296 294 294 296 297 298 299 299 299 302 303 305 306 307 309 311 311 311 311 310 310 311 310 310 309
123 114 195 194 199 270 318 344 346 344 265 261 248 152 181 196 202 237 263 261 242 231 240 254 266 270 271 273 273 274 277 282 283 265 250 232 227 238 247 251 247 239 234 228 220 215 217 222 227 231 238 255 269 271 272 276 278 278 283 291 294 292 292 294 295 296 297 297 298 299 302 303 304 306 307 309 311 310 310 310 310 311 311 310 309 307
139 144 191 198 210 275 348 21 325 290 290 299 324 134 163 124 121 281 287 272 242 230 240 249 257 262 268 272 271 273 285 296 287 264 249 235 232 235 243 251 244 230 226 221 216 218 221 224 229 234 244 259 267 266 268 271 271 276 285 290 288 288 291 294 294 295 295 296 298 300 301 303 305 306 307 309 310 309 309 310 310 311 312 311 309 307
134 145 160 243 217 213 310 264 255 303 315 315 317 163 173 186 165 163 288 285 259 221 225 241 256 263 267 269 272 284 339 328 296 273 241 228 235 236 235 241 237 225 223 221 222 227 229 232 236 239 248 258 258 258 262 263 266 277 285 285 284 287 291 292 291 292 293 295 298 300 301 303 305 306 307 308 308 308 308 309 309 311 313 310 307 306
120 160 164 183 250 109 68 298 309 337 315 276 241 238 205 173 149 125 139 292 279 235 217 227 247 258 262 267 273 312 22 332 295 284 240 214 230 233 226 229 222 216 218 218 220 223 226 230 233 237 246 249 248 252 255 256 266 278 282 282 284 287 289 289 289 290 292 295 298 300 302 304 305 305 305 306 306 306 306 308 309 311 312 307 304 305
61 49 110 125 281 53 103 254 263 269 271 257 229 220 197 163 132 100 6 295 270 230 210 214 233 248 257 261 258 305 8 305 292 289 234 194 212 209 204 212 208 209 216 218 219 220 220 224 229 234 239 240 243 249 249 252 266 277 277 278 282 284 284 284 286 290 293 295 298 299 302 304 304 304 303 304 305 305 306 307 308 310 309 303 301 303
43 11 86 157 242 198 152 220 242 241 260 258 192 169 193 168 115 66 327 302 255 213 207 207 228 244 249 249 229 179 217 257 279 289 194 177 201 197 195 204 201 205 213 214 218 222 221 220 224 225 228 234 241 245 245 252 266 270 270 275 279 278 278 281 287 293 294 295 297 300 302 303 302 302 303 303 305 306 307 307 306 307 306 304 303 304
137 231 188 187 212 190 182 230 266 258 260 262 166 153 172 153 79 10 307 296 262 226 216 206 230 247 243 228 213 210 224 238 259 275 176 166 198 204 202 209 209 210 214 212 213 216 216 218 223 226 232 238 240 240 243 252 262 264 267 272 271 271 277 284 290 293 294 295 298 299 300 302 302 303 305 305 306 306 307 307 306 305 305 306 307 306
201 204 185 174 193 194 192 216 275 278 263 152 116 147 172 136 326 298 283 284 284 271 254 229 235 247 242 227 224 236 246 249 253 259 228 194 205 207 201 204 207 210 213 212 212 212 212 216 221 226 233 236 234 237 242 248 255 260 262 262 264 272 282 287 289 292 294 296 297 298 300 303 306 308 308 308 308 306 306 309 309 306 307 308 308 308
182 181 217 203 186 182 208 232 288 289 259 135 116 90 205 193 265 290 298 298 287 280 277 261 248 247 242 239 240 243 252 259 256 250 240 220 213 210 201 197 199 203 204 204 208 211 213 216 220 224 229 231 232 237 239 242 248 253 253 257 266 277 283 283 286 291 293 294 296 299 303 307 310 312 311 311 312 308 306 309 310 309 310 310 309 309
189 183 221 240 203 160 182 227 230 235 193 160 155 250 240 223 256 291 302 296 290 287 285 277 266 257 241 241 252 254 254 259 257 249 243 232 219 212 207 200 201 204 204 205 209 212 212 215 219 224 228 230 233 235 235 237 242 244 248 257 270 277 277 281 288 290 291 294 297 301 307 310 313 316 316 316 316 310 307 310 311 311 312 311 309 309
217 197 203 240 237 207 207 240 259 274 195 191 217 252 261 265 277 286 282 282 286 285 283 280 277 273 254 239 252 260 257 258 258 250 242 237 227 216 213 209 206 206 207 209 211 211 212 215 219 221 224 228 229 230 233 237 237 239 247 258 268 271 273 280 286 287 289 294 298 304 310 313 316 320 322 322 319 312 309 312 313 313 313 313 312 310
250 208 175 260 281 286 266 262 278 291 283 258 246 251 260 271 279 283 281 279 278 279 280 278 276 277 271 251 248 258 259 259 262 258 245 238 232 221 214 214 211 209 208 209 209 210 211 214 217 219 221 225 228 229 234 237 235 238 247 257 262 265 270 275 279 283 288 294 300 307 312 315 319 324 325 323 320 315 313 313 313 312 313 314 313 311
339 36 350 266 295 315 295 286 294 295 292 292 289 279 272 269 269 274 278 277 279 282 283 280 278 280 279 262 248 258 265 264 263 261 252 239 233 226 217 214 211 207 207 209 209 209 208 208 211 215 219 224 227 229 231 234 236 240 246 251 255 259 264 267 271 278 285 293 301 308 313 316 318 320 321 322 322 321 319 318 315 313 311 311 310 307
336 23 298 258 253 263 270 280 290 290 286 287 288 287 290 291 290 289 286 283 285 287 285 284 282 280 279 269 257 259 267 268 263 261 255 243 235 230 221 217 213 209 209 211 209 206 205 207 211 214 219 223 226 228 229 232 237 239 241 245 248 250 253 259 266 273 281 291 299 306 311 315 314 314 317 321 323 321 320 320 318 314 310 309 305 297
356 296 253 257 273 272 274 286 298 299 291 286 286 290 297 303 304 303 299 296 295 294 293 293 287 276 269 269 267 267 270 268 263 260 258 249 239 234 226 219 216 212 210 209 208 207 207 210 213 215 219 224 227 226 227 231 235 237 238 240 241 239 245 255 262 268 276 286 295 302 308 311 312 315 318 319 321 322 320 319 317 312 311 312 308 299
342 267 278 323 314 298 294 302 311 314 306 300 303 307 309 310 310 309 307 307 307 307 307 304 300 293 280 271 268 268 270 272 270 264 260 253 244 238 232 221 215 214 212 209 208 209 210 214 217 218 222 226 227 225 226 230 233 235 236 236 234 234 240 248 255 262 271 280 289 297 304 307 310 316 319 319 321 322 320 320 320 315 313 316 317 316
219 232 262 305 293 286 289 295 302 305 295 294 302 308 310 312 314 312 312 313 313 314 315 311 307 304 300 291 281 267 260 269 274 269 262 259 252 243 234 225 217 214 213 208 204 204 210 215 218 220 224 226 225 224 226 229 231 232 233 231 230 232 236 240 245 255 264 272 281 291 298 302 306 311 314 318 321 320 319 324 329 330 328 326 327 333
Height
857 863 872 874 877 878 875 878 880 879 878 875 876 878 878 879 878 875 870 866 865 864 870 878 882 887 887 885 887 888 889 890 891 892 892 893 892 892 894 894 894 893 893 892 891 890 888 887 886 886 885 884 882 880 878 877 875 874 873 871 870 868 867 866 865 863 863 862 860 859 857 855 854 852 851 849 847 846 844 842 842 841 840 840 840 839
860 869 878 877 876 876 875 878 880 877 874 871 875 878 878 882 879 874 871 868 866 867 876 885 886 887 887 886 887 887 888 889 889 891 891 891 891 892 894 893 892 892 892 892 890 888 888 886 885 885 884 883 882 880 879 877 876 875 873 871 870 869 868 867 866 865 864 864 863 861 859 856 854 852 851 849 847 845 843 842 841 840 839 839 838 838
869 875 877 874 874 875 876 877 878 878 875 871 875 877 880 884 881 874 869 868 868 868 877 886 884 886 888 887 887 887 887 888 888 889 889 890 891 891 892 892 891 892 891 890 888 886 886 886 884 883 883 882 881 880 878 877 876 874 873 872 870 869 868 867 866 865 864 863 862 860 858 856 854 852 850 849 847 845 843 841 840 839 838 837 837 837
873 876 874 873 874 873 876 878 878 878 876 876 877 878 880 884 885 880 872 869 870 868 875 884 884 888 891 888 889 888 887 888 888 888 889 889 890 891 891 891 891 892 891 888 886 886 885 885 884 883 882 881 880 879 877 876 875 874 873 872 871 869 867 866 865 864 863 861 860 858 856 855 852 851 849 847 845 843 842 841 840 839 838 837 837 837
875 875 873 873 873 873 876 879 881 880 879 882 881 878 879 880 883 884 879 874 871 866 869 877 880 884 891 890 888 889 888 888 888 888 888 888 889 890 890 890 891 890 889 886 885 885 885 884 883 882 881 880 879 878 876 876 874 874 873 871 870 868 866 865 864 863 861 860 858 856 854 852 850 849 847 846 844 842 842 840 840 839 839 838 838 837
877 875 873 874 874 876 877 878 882 883 883 883 877 875 877 877 879 882 881 879 876 867 865 871 869 869 884 892 887 888 890 889 888 887 887 888 888 888 888 889 889 889 886 885 884 884 883 882 882 880 880 878 877 877 876 875 874 872 872 870 869 867 866 865 863 862 861 859 857 855 854 852 850 849 847 846 844 843 842 841 840 839 838 838 838 837
876 876 875 876 877 878 878 880 882 883 885 882 871 871 875 876 879 880 880 881 879 871 865 868 870 870 877 883 885 888 890 888 887 886 885 887 887 887 888 888 887 886 884 884 883 882 882 881 880 879 878 877 876 876 875 873 872 871 870 869 868 867 865 864 862 861 860 858 857 855 854 852 850 849 847 846 845 843 842 841 839 838 836 836 836 835
876 876 877 879 879 879 879 881 882 882 886 878 866 871 875 875 878 877 879 882 878 873 868 865 872 875 866 868 882 887 887 888 886 886 885 886 886 885 886 886 885 884 883 882 882 881 880 879 878 877 876 875 874 873 872 871 871 870 869 868 867 865 864 862 861 860 859 858 856 855 853 852 850 848 847 845 844 842 841 840 838 837 836 835 834 833
879 877 880 882 880 879 879 881 882 882 884 876 869 873 874 875 877 875 878 879 875 875 873 866 870 874 862 865 885 888 886 887 883 882 883 882 884 884 884 884 883 882 881 880 880 879 878 877 876 876 874 873 872 871 870 870 869 868 868 867 866 864 863 861 860 859 858 857 855 854 852 851 849 847 846 844 843 841 839 838 836 836 835 834 833 832
880 880 882 883 882 882 879 880 881 881 881 876 872 871 872 875 874 873 876 874 874 877 873 869 873 877 867 866 884 889 884 882 877 878 880 880 881 881 882 882 880 880 879 878 878 877 876 875 874 874 872 871 869 869 868 868 868 867 867 866 864 863 861 860 858 857 856 856 854 853 851 850 848 846 844 842 841 839 838 836 835 834 834 832 831 830
882 881 883 882 883 883 880 879 879 879 879 876 875 874 871 870 867 869 872 871 877 876 869 870 875 880 874 862 871 880 873 870 870 874 878 878 879 879 879 880 878 878 877 876 876 875 874 873 872 872 870 869 867 866 866 866 866 866 865 864 862 862 861 859 857 855 855 854 853 852 850 849 847 845 843 841 839 838 837 835 834 833 832 831 830 829
883 880 882 883 883 884 882 880 877 878 881 878 881 881 870 863 865 868 869 873 876 865 862 874 875 878 876 855 853 866 868 869 869 871 876 876 876 877 877 877 876 875 875 874 873 872 872 871 870 870 868 867 865 864 864 863 863 864 863 862 861 860 859 858 856 854 853 853 851 850 849 847 846 844 842 840 839 837 836 835 833 832 831 829 828 827
880 882 886 884 882 884 881 879 878 878 882 882 885 885 870 866 868 864 867 876 871 856 858 872 873 874 869 849 846 859 866 871 871 870 873 873 873 874 874 874 873 872 872 872 871 870 870 870 868 868 866 865 864 863 862 862 861 861 861 860 859 859 858 856 855 854 852 851 850 849 847 846 844 843 841 839 838 836 835 834 833 831 830 828 827 826
878 882 888 884 881 884 882 882 883 882 884 884 886 885 877 878 875 867 873 879 870 859 858 867 875 873 859 845 849 857 860 867 870 869 869 868 870 870 870 871 869 870 870 868 868 868 867 868 867 865 864 863 863 862 861 861 860 860 859 858 858 857 856 855 854 853 851 850 848 847 846 844 842 841 839 838 837 835 834 833 831 830 829 827 826 825
883 876 881 884 882 884 885 886 887 887 889 886 886 887 888 892 888 880 884 883 876 873 870 869 869 860 846 844 852 857 861 867 867 866 866 865 867 867 867 867 866 867 867 865 866 865 865 865 865 864 863 862 863 861 860 860 859 858 857 857 856 855 855 854 852 851 850 848 846 845 844 842 841 839 838 837 835 834 833 831 830 828 827 826 824 823
886 875 881 887 885 885 886 887 888 889 887 885 886 889 892 897 898 894 891 888 891 895 888 875 857 845 846 854 862 864 864 867 865 863 865 863 864 865 863 864 864 864 863 863 863 863 863 864 863 863 863 862 862 860 860 859 857 856 856 855 854 853 853 852 851 849 848 846 845 844 842 841 839 838 836 835 833 832 831 829 828 826 825 824 822 820
884 875 883 888 887 889 888 886 890 888 881 882 887 891 895 899 901 901 897 898 905 899 883 868 852 848 851 852 862 870 866 865 865 861 861 861 860 861 861 861 861 861 860 860 861 861 861 861 862 862 861 860 860 859 858 857 855 855 855 854 852 851 851 850 849 848 846 845 843 842 841 839 838 837 835 833 831 830 829 827 826 824 823 821 820 818
892 881 881 886 885 888 891 888 890 891 886 884 886 891 897 898 900 904 902 902 907 896 878 868 860 858 855 849 859 871 867 863 862 858 858 858 857 858 858 858 858 857 857 857 858 859 859 859 860 860 859 858 857 857 856 855 854 853 853 852 851 850 849 848 847 846 844 843 842 840 839 838 836 835 833 831 830 828 826 825 823 822 820 819 817 816
901 886 878 886 886 887 893 889 886 891 891 886 885 889 891 891 895 901 899 897 901 898 884 873 866 863 857 848 848 854 856 854 854 854 855 854 855 856 855 855 855 854 854 855 856 857 857 857 857 857 856 856 855 854 853 852 852 851 851 850 849 848 847 846 845 844 842 841 840 839 837 836 835 833 832 830 828 826 824 822 821 820 818 816 815 813
903 892 879 884 890 890 891 890 887 888 892 890 890 894 892 891 896 900 902 902 901 902 894 877 863 851 843 840 837 838 843 845 846 849 850 851 852 853 853 852 852 852 852 852 853 854 854 854 854 854 854 853 853 852 851 850 849 849 849 848 847 846 845 844 843 841 840 839 838 837 835 834 833 831 830 828 826 824 822 821 819 817 815 814 812 811
902 898 885 883 891 889 883 886 886 885 890 892 893 897 894 895 900 901 906 909 903 904 907 897 872 840 826 833 834 832 836 839 842 845 847 849 850 850 850 849 849 849 849 850 851 851 852 852 851 851 851 851 850 849 848 847 847 846 846 846 845 844 843 842 841 839 838 837 835 834 833 832 831 829 827 826 824 823 820 819 817 815 813 811 809 808
901 901 896 890 886 877 876 887 890 887 887 886 887 891 890 892 900 901 903 909 911 908 906 907 889 844 823 830 830 829 834 835 839 843 843 846 847 846 847 846 846 846 845 847 848 848 849 849 849 849 849 848 847 846 845 845 844 843 843 843 842 842 841 839 838 837 836 834 833 832 831 829 828 827 825 824 822 820 818 816 815 813 811 809 807 805
904 906 906 895 881 874 880 891 893 890 888 885 886 891 892 895 899 898 896 901 913 913 906 917 906 851 821 830 830 828 833 833 837 842 841 842 843 843 843 842 842 842 842 844 845 845 846 845 846 846 845 846 845 844 843 842 842 841 840 840 840 839 838 837 836 835 833 832 831 829 828 827 826 824 823 821 819 818 816 814 813 811 809 806 804 802
905 906 904 891 878 879 889 894 894 894 892 887 887 891 893 895 895 897 902 906 913 910 903 918 907 847 818 832 832 828 834 835 837 839 837 838 838 838 839 839 839 839 840 842 841 842 843 842 843 843 843 843 842 841 841 840 839 839 838 838 837 836 836 834 833 832 831 830 828 826 826 824 823 822 820 819 817 815 814 812 810 808 806 804 802 800
899 897 896 887 874 871 875 881 884 888 891 888 887 891 891 895 902 906 912 917 914 903 897 905 886 834 816 832 833 832 836 833 833 835 833 834 834 834 836 835 836 837 837 839 839 839 840 840 840 841 840 840 840 839 839 837 837 836 835 835 834 833 833 831 831 830 828 827 825 824 823 821 820 819 817 816 815 813 811 809 808 806 804 802 799 797
899 896 894 887 880 875 870 867 866 872 881 882 885 891 891 896 901 898 906 917 909 899 902 897 863 818 810 826 829 829 831 826 825 828 829 831 831 831 833 832 833 835 834 835 836 836 837 837 837 838 837 837 837 837 836 835 834 833 832 832 831 830 829 828 828 827 825 824 822 821 820 818 817 816 814 813 812 810 809 807 805 803 801 800 797 795
904 903 897 889 883 878 872 866 865 870 877 877 880 886 890 897 899 895 903 907 897 896 895 876 854 832 817 819 821 820 822 822 821 822 824 827 828 828 830 830 830 831 831 832 833 833 834 834 834 834 834 834 834 834 833 832 831 830 829 829 828 827 826 825 825 824 823 821 819 818 816 815 814 813 811 810 808 807 806 804 803 801 799 797 795 792
905 899 895 895 888 878 875 873 874 880 881 877 877 880 885 895 901 898 896 886 881 888 872 843 847 851 827 813 814 813 815 818 818 819 821 822 824 825 826 827 827 828 828 829 830 830 830 831 831 831 831 831 831 831 831 830 829 828 827 825 825 824 823 822 821 820 819 818 816 815 814 812 812 810 808 807 805 804 803 801 800 798 796 794 792 790
905 896 894 898 890 883 886 882 879 883 883 879 878 878 880 891 898 893 884 876 878 880 856 831 840 847 828 814 812 811 814 817 815 816 818 819 822 823 823 824 824 824 825 825 826 826 827 827 827 827 828 828 828 828 828 827 826 825 824 823 822 821 820 819 818 817 816 815 813 812 811 810 809 807 806 804 802 801 800 798 796 795 793 791 789 787
904 896 896 899 891 884 885 881 880 885 884 876 872 870 871 879 887 886 876 874 878 874 856 844 847 845 829 817 813 811 813 815 814 815 817 817 819 820 820 820 820 820 821 821 822 823 823 824 824 824 825 825 825 825 824 823 823 822 821 820 819 819 818 816 815 814 813 812 811 810 809 807 806 805 803 801 800 798 797 795 793 792 790 788 786 784
902 895 895 899 892 879 874 874 875 879 878 870 863 862 865 868 876 883 879 877 880 873 860 858 860 848 825 814 813 813 812 813 813 813 813 813 815 816 816 816 815 816 817 817 818 819 820 820 821 821 822 822 821 821 820 820 819 818 818 818 817 816 815 814 812 811 810 809 808 807 806 804 803 802 800 799 797 795 793 792 790 788 786 784 782 780
905 899 896 901 892 874 869 872 871 873 875 871 861 855 857 861 863 865 868 870 869 860 853 859 858 834 810 807 812 810 809 812 810 808 809 810 811 812 811 811 811 811 812 813 814 815 816 816 817 817 818 818 818 818 817 816 816 815 815 815 814 813 812 811 810 809 808 807 805 804 803 802 800 799 798 796 794 792 791 789 787 785 783 781 779 777
908 902 899 904 891 869 870 878 874 869 857 843 838 834 835 845 850 847 849 853 851 848 846 844 831 809 799 806 809 805 805 806 804 804 805 804 805 808 807 806 806 806 808 809 809 811 812 812 812 813 813 814 814 814 814 814 813 812 812 812 811 810 810 809 807 806 805 804 803 802 800 799 798 796 795 793 792 790 788 786 784 782 780 778 776 775
910 905 902 906 892 872 875 878 866 852 830 813 820 828 827 832 838 836 834 834 836 839 834 824 812 805 804 806 804 802 800 799 799 800 800 800 802 803 802 802 802 802 803 805 805 807 807 808 808 809 809 810 811 811 811 811 810 809 809 809 808 808 807 806 805 803 802 801 800 799 798 797 795 793 792 791 789 787 785 783 781 780 778 776 774 772
907 906 903 906 900 885 881 876 852 829 816 815 827 836 835 834 837 837 831 827 831 832 827 821 815 808 805 803 801 800 797 797 800 800 798 799 799 798 798 797 797 798 799 800 802 802 803 804 805 805 806 806 807 807 807 807 807 807 806 806 805 805 804 803 802 801 799 798 797 796 795 794 792 791 789 788 786 784 782 780 778 777 776 774 771 770
903 905 902 902 900 888 881 879 858 830 818 821 830 840 842 839 840 839 827 815 818 822 821 819 812 804 802 800 797 797 798 801 802 798 795 796 794 793 793 790 791 793 794 795 797 798 799 800 801 801 802 803 803 804 804 804 804 804 803 803 803 802 801 800 799 798 797 795 794 794 793 792 790 788 787 785 783 781 779 777 776 774 773 771 769 767
899 902 902 898 894 887 885 883 868 846 826 816 820 834 840 835 834 837 826 809 805 811 813 811 805 801 801 797 794 797 802 803 798 789 786 787 786 785 786 785 786 788 789 791 793 793 795 796 797 798 799 800 801 801 801 801 801 801 800 800 799 799 798 797 796 795 794 792 792 791 790 789 788 786 784 782 781 779 776 775 773 771 770 769 766 765
900 901 900 893 888 890 891 882 868 849 822 806 818 838 844 839 837 841 839 820 801 799 804 804 801 798 795 793 794 798 801 800 790 777 774 778 779 780 781 782 783 784 786 788 789 790 792 793 794 795 796 797 797 797 798 798 797 797 797 796 796 796 795 794 793 792 791 790 789 788 787 786 785 783 781 780 778 776 774 772 770 769 768 766 764 763
904 905 903 900 894 894 892 881 872 856 822 805 823 843 846 843 841 843 839 814 790 789 796 796 795 793 790 791 793 796 800 798 781 765 766 773 775 776 778 779 780 781 782 784 786 787 789 789 791 792 793 793 794 794 795 795 794 794 794 793 793 793 792 791 790 789 789 787 786 785 784 783 782 781 779 777 775 773 771 770 768 766 765 764 762 760
908 906 906 904 898 899 896 886 877 859 825 811 827 843 847 846 843 839 822 793 779 786 792 791 790 788 787 789 793 796 797 788 769 757 763 771 771 773 775 775 776 778 778 780 782 783 785 787 787 788 789 789 790 790 791 791 791 791 790 790 790 789 788 788 787 786 786 785 784 783 781 781 780 778 777 774 772 770 769 767 766 764 763 762 760 758
911 909 908 903 897 900 900 890 876 852 824 819 835 844 847 845 838 827 805 781 777 784 788 789 788 783 783 787 789 788 782 771 761 758 763 769 769 769 771 771 772 774 774 776 778 779 781 783 783 784 784 785 786 787 787 788 787 786 786 787 786 785 785 784 784 783 783 782 781 780 779 778 777 775 774 772 770 768 766 765 764 762 761 759 757 756
891 897 901 900 895 893 894 891 876 844 822 830 845 848 847 838 818 801 788 779 780 782 782 785 784 779 780 782 780 775 767 761 761 760 762 765 765 765 767 768 769 770 771 772 774 775 777 778 779 780 780 780 782 783 783 784 783 783 783 783 782 781 781 781 781 780 780 779 778 777 776 775 774 772 771 769 767 765 764 762 761 760 759 757 755 753
864 868 872 880 881 878 883 883 859 823 815 832 840 839 843 827 796 782 782 781 780 780 779 780 779 776 775 774 770 767 762 759 759 758 758 760 760 760 762 763 764 765 766 768 769 770 772 773 774 775 775 776 778 778 779 780 779 779 780 778 778 778 778 778 778 777 776 776 775 774 773 771 770 769 768 766 765 763 761 760 759 758 756 755 753 752
858 852 847 854 858 856 857 848 821 803 817 834 824 814 820 812 792 788 791 785 780 778 776 775 772 769 770 768 763 761 759 756 754 752 754 755 755 756 757 757 759 760 760 762 763 764 766 768 768 770 771 772 773 774 775 776 775 776 775 774 774 775 775 775 774 774 773 772 771 771 770 768 767 766 765 764 762 761 759 758 757 756 754 753 752 750
849 846 842 843 843 841 836 824 810 808 822 831 820 807 805 801 795 796 795 789 783 777 774 772 767 762 763 763 760 758 755 751 748 748 749 749 748 750 752 752 753 754 755 757 758 759 761 762 763 765 766 767 768 769 770 771 771 771 771 770 771 772 771 771 771 770 770 769 768 768 766 765 764 763 762 761 760 759 758 756 755 754 752 751 750 748
848 851 849 844 842 839 830 820 817 816 814 816 817 811 806 801 797 795 793 788 782 774 771 770 765 759 758 760 759 755 750 745 744 744 744 744 744 745 746 746 747 749 751 752 753 754 755 757 758 760 761 761 763 764 764 766 766 766 766 766 768 768 768 768 768 767 767 766 765 765 764 762 761 760 759 758 758 757 756 754 753 752 750 749 748 746
852 856 853 847 846 844 830 817 816 816 811 810 809 805 801 799 795 793 790 784 778 773 770 767 763 759 757 758 756 751 744 742 742 740 739 740 740 740 740 741 742 743 745 746 747 749 751 752 753 754 754 756 757 758 759 760 760 761 762 763 764 764 764 765 764 764 764 763 763 762 761 760 758 757 757 756 756 755 753 752 751 750 749 748 746 744
852 855 852 846 847 845 831 818 817 816 812 809 806 801 797 794 790 789 787 782 777 773 768 764 762 760 756 753 752 747 741 739 738 736 735 736 736 735 736 736 736 738 739 741 743 745 746 746 747 747 748 749 751 753 754 755 755 757 758 759 760 761 761 761 761 760 760 760 760 760 759 758 757 756 755 754 754 753 751 750 749 748 747 746 745 743
854 854 849 845 844 842 832 821 817 813 806 802 802 800 796 792 789 786 782 777 774 770 766 762 758 756 753 749 746 744 740 735 733 733 732 731 731 731 731 731 732 733 734 735 737 739 740 740 741 742 743 744 746 748 749 750 751 752 753 754 756 757 757 757 758 757 757 757 757 757 757 756 755 754 753 752 751 751 750 749 748 747 745 744 743 741
855 850 847 846 845 840 830 821 818 816 809 800 796 795 793 790 787 783 778 774 771 767 764 760 754 750 749 746 745 744 739 733 730 730 729 727 727 726 726 727 728 728 728 730 731 733 735 736 737 738 739 740 742 744 744 745 746 748 749 750 751 752 753 754 754 754 754 754 754 755 755 754 753 752 751 750 749 749 748 747 747 745 744 743 741 740
853 847 846 846 843 837 828 821 822 823 815 802 796 794 791 788 786 782 778 774 770 766 764 761 755 749 745 742 741 742 738 731 728 728 726 724 722 722 722 722 722 722 723 724 726 728 730 732 733 735 735 736 738 739 740 741 742 743 745 746 747 748 749 750 750 750 750 750 751 752 752 752 751 751 750 748 748 747 745 745 744 743 742 741 740 738